Weather History for PHNL - February, 2013

Change the Weather History Date:

Sunday, February 17, 2013

  Actual Average Record
Temperature  
Mean Temperature 76 °F 73 °F  
Max Temperature 81 °F 80 °F 85 °F (2000)
Min Temperature 71 °F 66 °F 56 °F (1986)
Degree Days  
Heating Degree Days 0 0  
Month to date heating degree days 0 0  
Since 1 July heating degree days 0 0  
Cooling Degree Days 11 8  
Month to date cooling degree days 169 136  
Year to date cooling degree days 388 390  
Growing Degree Days 26 (Base 50)    
Moisture  
Dew Point 58 °F    
Average Humidity 55    
Maximum Humidity 68    
Minimum Humidity 42    
Precipitation  
Precipitation T in 0.07 in 1.95 in (1894)
Month to date precipitation T 1.14  
Year to date precipitation 2.42 3.45  
Snow  
Snow 0.00 in - - ()
Month to date snowfall 0.0  
Since 1 July snowfall 0.0  
Snow Depth 0.00 in    
Sea Level Pressure  
Sea Level Pressure 30.13 in    
Wind  
Wind Speed 22 mph (ENE)    
Max Wind Speed 35 mph    
Max Gust Speed 43 mph    
Visibility 10 miles    
Events Rain    
T = Trace of Precipitation, MM = Missing Value Source: NWS Daily Summary

Daily Weather History Graph

Daily Weather History Graph

Search for Another Location

Airport or City:

Trip Planner

Search our weather history database for the weather conditions in past years. The results will help you decide how hot, cold, wet, or windy it might be!

Date:

Astronomy

Feb. 17, 2013 Rise Set
Actual Time 7:00 AM HST 6:30 PM HST
Civil Twilight 6:38 AM HST 6:53 PM HST
Nautical Twilight 6:11 AM HST 7:19 PM HST
Astronomical Twilight 5:45 AM HST 7:45 PM HST
Moon 12:00 PM HST (2/17) 12:39 AM HST (2/17)
Length of Visible Light 12h 15m
Length of Day
11h 30m
Waxing Crescent, 51% of the Moon is Illuminated
Feb 17
Waxing Crescent
Feb 25
Full
Mar 4
Last Quarter
Mar 11
New
Mar 19
First Quarter

Hourly Weather History & Observations

Time (HST) Temp. Heat Index Dew Point Humidity Pressure Visibility Wind Dir Wind Speed Gust Speed Precip Events Conditions
12:53 AM 73.0 °F - 55.0 °F 53% 30.13 in 10.0 mi ENE 18.4 mph 34.5 mph N/A   Partly Cloudy
1:53 AM 72.0 °F - 55.9 °F 57% 30.12 in 10.0 mi ENE 26.5 mph 33.4 mph N/A   Scattered Clouds
2:53 AM 72.0 °F - 57.9 °F 61% 30.10 in 10.0 mi ENE 17.3 mph 26.5 mph N/A   Partly Cloudy
3:53 AM 72.0 °F - 57.9 °F 61% 30.09 in 10.0 mi ENE 19.6 mph - N/A   Partly Cloudy
4:53 AM 72.0 °F - 57.0 °F 59% 30.08 in 10.0 mi ENE 17.3 mph - N/A   Partly Cloudy
5:53 AM 73.0 °F - 59.0 °F 61% 30.10 in 10.0 mi ENE 16.1 mph 24.2 mph N/A   Scattered Clouds
6:53 AM 72.0 °F - 60.1 °F 66% 30.12 in 10.0 mi ENE 21.9 mph 33.4 mph N/A   Scattered Clouds
7:53 AM 73.0 °F - 57.9 °F 59% 30.14 in 10.0 mi ENE 23.0 mph 32.2 mph N/A   Mostly Cloudy
8:53 AM 72.0 °F - 59.0 °F 64% 30.17 in 10.0 mi ENE 32.2 mph 42.6 mph 0.00 in Rain Light Rain
9:53 AM 75.0 °F - 60.1 °F 60% 30.17 in 10.0 mi ENE 24.2 mph 32.2 mph 0.00 in   Mostly Cloudy
10:53 AM 79.0 °F - 57.9 °F 48% 30.16 in 10.0 mi NE 21.9 mph 29.9 mph N/A   Mostly Cloudy
11:53 AM 79.0 °F - 57.9 °F 48% 30.15 in 10.0 mi NE 20.7 mph 32.2 mph N/A   Mostly Cloudy
12:53 PM 80.1 °F 80.1 °F 55.0 °F 42% 30.12 in 10.0 mi ENE 24.2 mph 33.4 mph N/A   Scattered Clouds
1:53 PM 79.0 °F - 57.9 °F 48% 30.09 in 10.0 mi NE 26.5 mph 40.3 mph N/A   Scattered Clouds
2:53 PM 79.0 °F - 57.9 °F 48% 30.08 in 10.0 mi NNE 23.0 mph 34.5 mph N/A   Scattered Clouds
3:53 PM 79.0 °F - 57.9 °F 48% 30.08 in 10.0 mi NE 21.9 mph 32.2 mph N/A   Scattered Clouds
4:53 PM 77.0 °F - 55.9 °F 48% 30.09 in 10.0 mi ENE 24.2 mph 32.2 mph N/A   Scattered Clouds
5:53 PM 75.0 °F - 55.9 °F 51% 30.11 in 10.0 mi ENE 19.6 mph 29.9 mph N/A   Scattered Clouds
7:53 PM 73.9 °F - 59.0 °F 59% 30.15 in 10.0 mi ENE 19.6 mph 26.5 mph N/A   Mostly Cloudy
8:53 PM 73.0 °F - 57.0 °F 57% 30.17 in 10.0 mi ENE 19.6 mph 29.9 mph N/A   Scattered Clouds
9:53 PM 73.0 °F - 57.9 °F 59% 30.18 in 10.0 mi NE 20.7 mph 27.6 mph 0.00 in   Scattered Clouds
10:53 PM 73.0 °F - 57.9 °F 59% 30.17 in 10.0 mi ENE 21.9 mph 28.8 mph N/A   Scattered Clouds
11:53 PM 72.0 °F - 57.0 °F 59% 30.15 in 10.0 mi NE 23.0 mph 32.2 mph N/A   Scattered Clouds